PulseSat

PulseSat

MOLNIYA 1-90

Last updated on Feb. 15, 2019, 3:05 a.m. UTC

1 24960U 97054A   19044.40143052  .00000097  00000-0  11272-3 0  9995
2 24960  62.8379 106.2138 6422906 298.0814  12.2148  3.18687046169120
UTC
Height (km)
Latitude
Longitude
Inclination
Orbital Period

Next 30 passes for location: Hong Kong

Rise time Rise Azimuth (degrees) Set time Set Azimuth (degrees) Duration Max altitude (degrees)

No matching passes for this satellites

PulseSat

PulseSat is the new satellites software and hardware trackering solution by Pulsely.
Satellite Two Line Element Set source: US Air Force Space Command

Download PulseSat for iOS
© 2017 Pulsely Limited